GPS BIIR-2 (PRN 13) 1 24876U 97035A 25258.48394121 .00000007 00000+0 00000+0 0 9990 2 24876 55.8483 109.3209 0095260 56.2505 304.7334 2.00562869206449 GPS BIIR-5 (PRN 22) 1 26407U 00040A 25258.80926133 .00000022 00000+0 00000+0 0 9999 2 26407 54.9171 226.0616 0130699 299.9561 225.9213 2.00566803184445 GPS BIIR-8 (PRN 16) 1 27663U 03005A 25257.15253046 .00000045 00000+0 00000+0 0 9996 2 27663 54.9508 225.9377 0143374 50.6604 132.9104 2.00575723165772 GPS BIIR-11 (PRN 19) 1 28190U 04009A 25257.66799194 .00000004 00000+0 00000+0 0 9997 2 28190 55.0612 286.8078 0107535 165.4404 192.7339 2.00564124157411 GPS BIIR-13 (PRN 02) 1 28474U 04045A 25258.56890584 -.00000096 00000+0 00000+0 0 9999 2 28474 55.2814 335.9537 0167666 306.0342 41.3879 2.00565358152911 GPS BIIRM-1 (PRN 17) 1 28874U 05038A 25258.14959751 .00000010 00000+0 00000+0 0 9997 2 28874 55.1063 284.2667 0133749 291.3209 76.2757 2.00554006146321 GPS BIIRM-2 (PRN 31) 1 29486U 06042A 25255.79825051 .00000003 00000+0 00000+0 0 9998 2 29486 54.6858 162.3498 0106132 49.1341 323.0206 2.00557617138837 GPS BIIRM-3 (PRN 12) 1 29601U 06052A 25258.20228423 .00000031 00000+0 00000+0 0 9998 2 29601 54.9954 224.9083 0085109 86.9467 274.0093 2.00568147137893 GPS BIIRM-4 (PRN 15) 1 32260U 07047A 25258.50670902 .00000006 00000+0 00000+0 0 9996 2 32260 53.8902 91.4021 0164453 83.6572 278.2790 2.00568058131300 GPS BIIRM-5 (PRN 29) 1 32384U 07062A 25257.44994933 .00000007 00000+0 00000+0 0 9996 2 32384 55.2558 285.2263 0032600 163.3563 282.3280 2.00572866129988 GPS BIIRM-6 (PRN 07) 1 32711U 08012A 25258.42570482 -.00000033 00000+0 00000+0 0 9994 2 32711 54.4664 160.8991 0200596 244.2183 113.7396 2.00561543128248 GPS BIIRM-8 (PRN 05) 1 35752U 09043A 25258.65486294 -.00000056 00000+0 00000+0 0 9994 2 35752 56.0325 38.2543 0054720 81.6909 100.9067 2.00570669117851 GPS BIIF-1 (PRN 25) 1 36585U 10022A 25258.50662029 .00000018 00000+0 00000+0 0 9991 2 36585 54.3218 219.6286 0122563 64.2614 132.8666 2.00574542112081 GPS BIIF-3 (PRN 24) 1 38833U 12053A 25258.10512850 -.00000030 00000+0 00000+0 0 9992 2 38833 53.5437 154.8694 0171618 62.3091 299.4712 2.00564089 93927 GPS BIIF-4 (PRN 27) 1 39166U 13023A 25257.96889719 .00000016 00000+0 00000+0 0 9997 2 39166 54.7251 280.1750 0133427 48.1431 313.0340 2.00565439 90361 GPS BIIF-5 (PRN 30) 1 39533U 14008A 25254.97502013 .00000013 00000+0 00000+0 0 9993 2 39533 53.6194 160.6675 0078420 226.3015 133.0975 2.00568920 84107 GPS BIIF-6 (PRN 06) 1 39741U 14026A 25258.24495409 -.00000100 00000+0 00000+0 0 9996 2 39741 56.6154 342.2195 0035926 317.0848 42.6781 2.00567519 83021 GPS BIIF-7 (PRN 09) 1 40105U 14045A 25257.83717343 .00000006 00000+0 00000+0 0 9995 2 40105 55.1704 99.4453 0032767 117.0083 243.3972 2.00567029 80552 GPS BIIF-8 (PRN 03) 1 40294U 14068A 25258.20919947 -.00000047 00000+0 00000+0 0 9991 2 40294 56.7947 41.5678 0061824 69.6765 290.9945 2.00559327 79692 GPS BIIF-9 (PRN 26) 1 40534U 15013A 25257.84336964 .00000021 00000+0 00000+0 0 9991 2 40534 53.2195 215.5680 0102313 36.2109 324.4564 2.00567685 76304 GPS BIIF-10 (PRN 08) 1 40730U 15033A 25258.50411674 .00000017 00000+0 00000+0 0 9992 2 40730 54.2038 278.4014 0105810 25.3455 335.2138 2.00570037 74485 GPS BIIF-11 (PRN 10) 1 41019U 15062A 25258.06355498 -.00000047 00000+0 00000+0 0 9991 2 41019 56.7701 41.4296 0106929 228.0337 131.0602 2.00566921 72318 GPS BIIF-12 (PRN 32) 1 41328U 16007A 25258.14520622 .00000008 00000+0 00000+0 0 9992 2 41328 55.3507 100.3729 0088593 242.5271 116.6397 2.00565322 70323 GPS BIII-1 (PRN 04) 1 43873U 18109A 25258.80411575 .00000012 00000+0 00000+0 0 9998 2 43873 55.5132 103.0184 0035146 194.5043 175.9271 2.00573916 49570 GPS BIII-2 (PRN 18) 1 44506U 19056A 25252.50597588 -.00000076 00000+0 00000+0 0 9995 2 44506 55.7550 342.2954 0056504 195.5871 203.1478 2.00563354 44442 GPS BIII-3 (PRN 23) 1 45854U 20041A 25258.50684528 -.00000052 00000+0 00000+0 0 9999 2 45854 56.4875 39.6201 0057542 200.0420 156.4755 2.00563846 38520 GPS BIII-4 (PRN 14) 1 46826U 20078A 25258.29261374 .00000024 00000+0 00000+0 0 9993 2 46826 54.0402 221.9281 0062722 203.5884 327.0005 2.00566983 35999 GPS BIII-5 (PRN 11) 1 48859U 21054A 25258.30455615 -.00000103 00000+0 00000+0 0 9990 2 48859 55.2865 343.5059 0023301 228.2196 140.5497 2.00557959 31247 GPS BIII-6 (PRN 28) 1 55268U 23009A 25255.75588914 .00000003 00000+0 00000+0 0 9997 2 55268 55.0960 159.4194 0003743 346.1561 23.2907 2.00562749 19681 GPS BIII-7 (PRN 01) 1 62339U 24242A 25258.59006610 -.00000105 00000+0 00000+0 0 9991 2 62339 54.9494 345.3121 0007880 342.0064 349.1650 2.00565749 5743 GPS BIII-8 (PRN 21) 1 64202U 25116A 25257.12389619 -.00000048 00000+0 00000+0 0 9990 2 64202 55.0418 42.2585 0002025 300.3572 243.4027 2.00564202 2335